TimeEST,TemperatureF,Dew PointF,Humidity,Sea Level PressureIn,VisibilityMPH,Wind Direction,Wind SpeedMPH,Gust SpeedMPH,PrecipitationIn,Events,Conditions,WindDirDegrees,DateUTC
12:56 AM,17.1,14.0,88,30.51,10.0,Calm,Calm,-,N/A,,Clear,0,2013-11-20 05:56:00
1:56 AM,16.0,12.9,88,30.52,10.0,Calm,Calm,-,N/A,,Clear,0,2013-11-20 06:56:00
2:56 AM,16.0,12.9,88,30.54,10.0,Calm,Calm,-,N/A,,Clear,0,2013-11-20 07:56:00
3:56 AM,16.0,12.9,88,30.56,10.0,East,3.5,-,N/A,,Clear,80,2013-11-20 08:56:00
4:56 AM,15.1,12.0,88,30.58,10.0,Calm,Calm,-,N/A,,Clear,0,2013-11-20 09:56:00
5:56 AM,15.1,10.9,84,30.58,10.0,East,4.6,-,N/A,,Clear,100,2013-11-20 10:56:00
6:56 AM,18.0,12.9,81,30.61,10.0,NE,3.5,-,N/A,,Clear,50,2013-11-20 11:56:00
7:56 AM,19.0,14.0,81,30.63,10.0,Calm,Calm,-,N/A,,Clear,0,2013-11-20 12:56:00
8:56 AM,25.0,19.0,78,30.65,10.0,Calm,Calm,-,N/A,,Clear,0,2013-11-20 13:56:00
9:56 AM,28.0,19.9,72,30.66,10.0,Calm,Calm,-,N/A,,Clear,0,2013-11-20 14:56:00
10:56 AM,32.0,19.9,61,30.65,10.0,Calm,Calm,-,N/A,,Clear,0,2013-11-20 15:56:00
11:56 AM,34.0,18.0,52,30.62,10.0,Calm,Calm,-,N/A,,Clear,0,2013-11-20 16:56:00
12:56 PM,37.0,18.0,46,30.61,10.0,Calm,Calm,-,N/A,,Clear,0,2013-11-20 17:56:00
1:56 PM,37.0,16.0,42,30.60,10.0,Calm,Calm,-,N/A,,Clear,0,2013-11-20 18:56:00
2:56 PM,37.0,18.0,46,30.59,10.0,NNW,5.8,-,N/A,,Clear,340,2013-11-20 19:56:00
3:56 PM,35.1,17.1,48,30.60,10.0,Calm,Calm,-,N/A,,Clear,0,2013-11-20 20:56:00
4:56 PM,30.0,18.0,61,30.60,10.0,NNE,3.5,-,N/A,,Clear,20,2013-11-20 21:56:00
5:56 PM,27.0,18.0,69,30.60,10.0,East,3.5,-,N/A,,Clear,80,2013-11-20 22:56:00
6:56 PM,25.0,17.1,72,30.61,10.0,Calm,Calm,-,N/A,,Clear,0,2013-11-20 23:56:00
7:56 PM,25.0,17.1,72,30.61,10.0,ENE,8.1,-,N/A,,Clear,70,2013-11-21 00:56:00
8:56 PM,26.1,18.0,71,30.59,10.0,ENE,8.1,-,N/A,,Clear,70,2013-11-21 01:56:00
9:56 PM,24.1,16.0,71,30.57,10.0,East,4.6,-,N/A,,Clear,80,2013-11-21 02:56:00
10:56 PM,23.0,17.1,78,30.56,10.0,Calm,Calm,-,N/A,,Clear,0,2013-11-21 03:56:00
11:56 PM,21.0,17.1,85,30.55,10.0,East,3.5,-,N/A,,Clear,90,2013-11-21 04:56:00